W4SNA-2 Weather Reports


Display with metric or nautical units.
time (UTC)temp
F
wind
direction
speed
MPH
gust
MPH
rain 1hr
in
rain 24hr
in
rain mn
in
humidity
%
barometer
mb
20201205111946 39 318 6.0 28.0 0.00 0.74 0.75 87 1010.3
20201205111441 39 326 4.0 29.0 0.00 0.74 0.75 86 1010.3
20201205110941 39 322 10.0 29.0 0.00 0.74 0.75 86 1010.3
20201205110443 39 317 4.0 22.0 0.00 0.74 0.75 86 1010.3
20201205105817 40 322 7.0 16.0 0.00 0.74 0.75 86 1010.3
20201205104944 40 322 5.0 16.0 0.00 0.74 0.75 86 1010.2
20201205104433 40 318 3.0 18.0 0.00 0.74 0.75 86 1010.2
20201205103932 40 316 8.0 18.0 0.00 0.74 0.75 86 1010.0
20201205103433 40 310 5.0 16.0 0.00 0.74 0.75 85 1010.0
20201205102934 40 308 1.0 16.0 0.00 0.74 0.75 85 1010.0
20201205102846 40 306 4.0 20.0 0.00 0.74 0.75 85 1009.7
20201205102433 40 0 0.0 15.0 0.00 0.74 0.75 85 1009.7
20201205101916 40 306 4.0 20.0 0.00 0.74 0.75 85 1009.7
20201205101416 40 314 3.0 20.0 0.00 0.74 0.75 85 1009.7
20201205100914 40 317 3.0 17.0 0.00 0.74 0.75 85 1009.5
20201205100416 40 315 4.0 17.0 0.00 0.74 0.75 85 1009.5
20201205095918 41 320 2.0 22.0 0.00 0.74 0.75 85 1009.5
20201205095416 41 309 7.0 24.0 0.00 0.74 0.75 84 1008.8
20201205094917 41 316 2.0 24.0 0.00 0.74 0.75 85 1008.8
20201205094417 41 329 3.0 20.0 0.00 0.74 0.75 86 1008.8
20201205093914 41 290 1.0 13.0 0.00 0.74 0.75 86 1008.8
20201205093415 41 0 0.0 21.0 0.00 0.74 0.75 86 1008.8
20201205092918 41 317 6.0 21.0 0.00 0.74 0.75 86 1008.8
20201205092415 41 308 4.0 20.0 0.00 0.74 0.75 86 1008.5
20201205091915 41 328 5.0 20.0 0.00 0.74 0.75 87 1008.5
20201205091415 41 327 4.0 20.0 0.00 0.74 0.75 87 1008.5
20201205090914 41 331 10.0 20.0 0.00 0.74 0.75 87 1008.6
20201205090417 41 330 10.0 22.0 0.00 0.74 0.75 87 1008.6
20201205085917 41 326 10.0 26.0 0.00 0.74 0.75 87 1008.6
20201205085414 41 326 11.0 26.0 0.00 0.74 0.75 88 1008.6
20201205085237 41 330 10.0 19.0 0.00 0.74 0.75 89 1008.6
20201205085228 41 324 8.0 19.0 0.00 0.74 0.75 89 1008.6
20201205084914 41 330 10.0 19.0 0.00 0.74 0.75 89 1008.6
20201205084414 41 324 8.0 19.0 0.00 0.74 0.75 89 1008.6
20201205083917 41 327 5.0 20.0 0.00 0.74 0.75 88 1008.6
20201205083417 41 317 4.0 20.0 0.00 0.74 0.75 89 1008.6
20201205082556 41 309 2.0 16.0 0.00 0.74 0.75 89 1008.6
20201205082100 42 316 2.0 17.0 0.00 0.74 0.75 89 1008.6
20201205081609 42 319 4.0 17.0 0.00 0.74 0.75 89 1008.6
20201205081102 42 323 4.0 16.0 0.00 0.74 0.75 89 1008.2
20201205080557 42 316 4.0 16.0 0.00 0.74 0.75 89 1008.2
20201205080106 42 317 6.0 24.0 0.00 0.74 0.75 89 1008.2
20201205075557 42 324 8.0 24.0 0.00 0.74 0.75 89 1007.5
20201205075056 42 324 10.0 19.0 0.00 0.74 0.75 89 1007.5
20201205074405 42 329 11.0 24.0 0.00 0.74 0.75 90 1007.5
20201205073906 42 327 9.0 24.0 0.00 0.74 0.75 90 1007.5
20201205073408 42 326 10.0 27.0 0.00 0.74 0.75 90 1007.5
20201205072906 42 318 11.0 27.0 0.00 0.74 0.75 90 1007.5
20201205072417 42 317 10.0 22.0 0.00 0.74 0.75 90 1006.9
20201205071909 42 320 9.0 29.0 0.00 0.74 0.75 91 1006.9
20201205071405 42 323 9.0 29.0 0.00 0.74 0.75 91 1006.9
20201205070905 42 311 7.0 26.0 0.00 0.74 0.75 92 1006.7
20201205070407 42 316 9.0 26.0 0.00 0.74 0.75 93 1006.7
20201205065907 42 325 9.0 24.0 0.00 0.74 0.75 93 1006.7
20201205065410 42 318 8.0 22.0 0.00 0.74 0.75 93 1006.4
20201205064911 42 325 9.0 22.0 0.00 0.74 0.75 93 1006.4
20201205064805 42 324 7.0 24.0 0.00 0.74 0.75 93 1006.4
20201205064405 42 324 7.0 24.0 0.00 0.74 0.75 93 1006.4
20201205063905 42 313 6.0 24.0 0.00 0.74 0.75 94 1006.3
20201205063405 42 316 9.0 23.0 0.00 0.74 0.75 94 1006.3
20201205062906 42 320 8.0 19.0 0.00 0.74 0.75 95 1006.3
20201205062328 42 323 8.0 20.0 0.00 0.74 0.75 95 1006.1
20201205061830 42 328 9.0 20.0 0.00 0.74 0.75 95 1006.1
20201205061328 42 330 10.0 21.0 0.00 0.74 0.75 95 1006.1
20201205060834 42 325 8.0 21.0 0.00 0.74 0.75 95 1006.2
20201205060330 43 321 10.0 22.0 0.00 0.74 0.75 95 1006.2
20201205055828 43 313 11.0 27.0 0.00 0.74 0.75 95 1006.2
20201205055328 43 319 7.0 27.0 0.00 0.74 0.75 96 1006.1
20201205054831 43 315 10.0 25.0 0.00 0.74 0.75 96 1006.1
20201205053953 43 316 7.0 20.0 0.00 0.74 0.75 97 1005.8
20201205053455 43 309 6.0 22.0 0.00 0.74 0.75 97 1005.8
20201205052954 43 307 7.0 22.0 0.00 0.74 0.75 97 1005.8
20201205052451 43 305 8.0 20.0 0.00 0.74 0.75 97 1004.9
20201205051952 43 312 7.0 22.0 0.00 0.74 0.75 97 1004.9
20201205051450 44 325 8.0 22.0 0.00 0.74 0.75 98 1004.9
20201205050541 44 317 7.0 20.0 0.00 0.74 0.75 98 1004.1
20201205050045 44 321 11.0 20.0 0.00 0.74 0.75 98 1004.1
20201205045540 44 323 8.0 17.0 0.00 0.74 0.75 98 1004.7
20201205045038 44 321 7.0 16.0 0.00 0.74 0.75 98 1004.7
20201205044535 44 319 8.0 16.0 0.00 0.74 0.75 98 1004.7
20201205044037 44 326 7.0 15.0 0.01 0.74 0.75 98 1004.5
20201205043539 44 317 4.0 13.0 0.01 0.74 0.75 98 1004.5
20201205043052 44 329 7.0 16.0 0.02 0.74 0.75 98 1004.5
20201205042539 44 325 5.0 16.0 0.03 0.74 0.75 98 1003.7
20201205042037 45 327 8.0 16.0 0.04 0.74 0.75 98 1003.7
20201205041115 45 334 11.0 19.0 0.06 0.74 0.75 98 1004.1
20201205040605 45 336 11.0 20.0 0.08 0.74 0.75 98 1004.1
20201205040106 45 338 10.0 20.0 0.12 0.74 0.75 98 1004.1
20201205035611 45 334 10.0 19.0 0.14 0.74 0.75 98 1005.0
20201205034647 46 333 10.0 20.0 0.18 0.74 0.75 98 1005.0
20201205034141 46 329 12.0 20.0 0.20 0.74 0.75 98 1006.3
20201205033644 46 333 10.0 18.0 0.21 0.73 0.74 98 1006.3
20201205033141 46 332 10.0 20.0 0.24 0.73 0.74 98 1006.3
20201205032641 46 323 7.0 24.0 0.25 0.71 0.72 98 1006.3
20201205032141 46 320 11.0 24.0 0.27 0.70 0.71 98 1006.3
20201205031640 46 317 8.0 25.0 0.27 0.69 0.70 98 1006.3
20201205031142 46 316 8.0 37.0 0.28 0.68 0.69 97 1006.3
20201205030641 45 318 12.0 37.0 0.31 0.67 0.68 97 1006.3
20201205025948 46 331 7.0 11.0 0.30 0.62 0.62 98 1006.3
20201205025448 46 328 6.0 10.0 0.30 0.60 0.60 97 1006.8
20201205024910 47 0 0.0 3.0 0.30 0.58 0.58 97 1006.8
20201205024409 47 0 0.0 4.0 0.29 0.56 0.56 97 1006.8
20201205023905 47 0 0.0 4.0 0.26 0.53 0.53 97 1006.7
20201205023405 48 0 0.0 2.0 0.25 0.51 0.51 97 1006.7
20201205022904 48 0 0.0 2.0 0.23 0.49 0.49 97 1006.7
20201205022409 49 0 0.0 3.0 0.20 0.46 0.46 98 1006.8
20201205021908 50 0 0.0 3.0 0.18 0.43 0.43 98 1006.8
20201205021405 50 0 0.0 5.0 0.17 0.41 0.41 98 1006.8
20201205020904 48 0 0.0 5.0 0.15 0.39 0.39 97 1007.2
20201205020408 48 0 0.0 0.0 0.12 0.35 0.35 97 1007.2
20201205015905 49 0 0.0 10.0 0.11 0.32 0.32 98 1007.2
20201205015408 50 0 0.0 10.0 0.11 0.30 0.30 98 1007.7
20201205014905 49 176 1.0 10.0 0.10 0.28 0.28 98 1007.7
20201205014409 49 0 0.0 0.0 0.09 0.27 0.27 98 1007.7
20201205013904 49 0 0.0 5.0 0.10 0.27 0.27 98 1008.0
20201205013413 49 0 0.0 8.0 0.11 0.26 0.26 98 1008.0
20201205012909 49 165 2.0 8.0 0.12 0.26 0.26 98 1008.0
20201205012412 49 0 0.0 4.0 0.14 0.26 0.26 98 1008.3
20201205011906 49 0 0.0 6.0 0.15 0.25 0.25 98 1008.3
20201205011405 49 0 0.0 9.0 0.15 0.24 0.24 97 1008.3
20201205010906 48 181 3.0 11.0 0.15 0.24 0.24 97 1009.1
20201205010411 45 0 0.0 18.0 0.15 0.23 0.23 96 1009.1
20201205005905 46 313 9.0 18.0 0.13 0.21 0.21 96 1009.1
20201205005405 49 0 0.0 4.0 0.13 0.19 0.19 97 1008.8
20201205004413 49 160 3.0 10.0 0.13 0.18 0.18 97 1008.8
20201205003923 49 170 2.0 8.0 0.13 0.17 0.17 97 1009.2
20201205003422 49 0 0.0 8.0 0.14 0.16 0.16 97 1009.2
20201205002927 49 170 3.0 7.0 0.12 0.14 0.14 97 1009.2
20201205002413 49 172 2.0 6.0 0.10 0.12 0.12 97 1009.8
20201205001916 49 0 0.0 9.0 0.10 0.11 0.11 97 1009.8
20201205001416 49 174 1.0 13.0 0.08 0.09 0.09 97 1009.8
20201205000911 49 189 3.0 13.0 0.08 0.09 0.09 97 1009.8
20201205000413 49 178 7.0 13.0 0.07 0.08 0.08 97 1009.8
20201204235914 49 181 6.0 14.0 0.08 0.08 0.08 97 1009.8
20201204235413 49 0 0.0 16.0 0.07 0.07 0.07 97 1010.2
20201204234916 49 170 6.0 16.0 0.06 0.06 0.06 96 1010.2
20201204234413 49 168 3.0 9.0 0.05 0.05 0.05 96 1010.2
20201204233913 49 0 0.0 16.0 0.04 0.04 0.04 96 1010.8
20201204233410 49 164 3.0 16.0 0.02 0.02 0.02 96 1010.8
20201204232913 49 168 4.0 14.0 0.02 0.02 0.02 96 1010.8
20201204232414 48 175 5.0 14.0 0.02 0.02 0.02 96 1011.0
20201204231912 48 0 0.0 7.0 0.01 0.01 0.01 95 1011.0
20201204231411 48 165 1.0 9.0 0.01 0.01 0.01 95 1011.0
20201204230911 48 193 3.0 9.0 0.01 0.01 0.01 95 1011.3
20201204230413 48 164 1.0 5.0 0.01 0.01 0.01 94 1011.3
20201204225912 48 0 0.0 6.0 0.00 0.00 0.00 94 1011.3
20201204225412 48 193 1.0 9.0 0.00 0.00 0.00 93 1011.8
20201204224913 48 0 0.0 9.0 0.00 0.00 0.00 93 1011.8
20201204224205 48 186 5.0 12.0 0.00 0.00 0.00 93 1011.4
20201204223703 48 176 3.0 12.0 0.00 0.00 0.00 92 1011.4
20201204223203 49 164 1.0 15.0 0.00 0.00 0.00 91 1011.4
20201204222732 49 174 5.0 16.0 0.00 0.00 0.00 91 1011.8
20201204222311 48 177 8.0 16.0 0.00 0.00 0.00 92 1011.8
20201204222203 48 177 8.0 16.0 0.00 0.00 0.00 92 1011.8
20201204221712 48 173 6.0 14.0 0.00 0.00 0.00 91 1011.8
20201204220810 48 177 4.0 14.0 0.00 0.00 0.00 91 1012.4
20201204220306 48 178 4.0 14.0 0.00 0.00 0.00 91 1012.4
20201204215800 48 195 2.0 10.0 0.00 0.00 0.00 91 1012.4
20201204215304 48 177 1.0 10.0 0.00 0.00 0.00 91 1012.4
20201204214805 48 177 1.0 8.0 0.00 0.00 0.00 92 1012.4
20201204214303 47 171 1.0 10.0 0.00 0.00 0.00 91 1012.6
20201204213803 47 0 0.0 10.0 0.00 0.00 0.00 91 1012.6
20201204213301 47 0 0.0 14.0 0.00 0.00 0.00 90 1012.6
20201204212809 47 175 5.0 14.0 0.00 0.00 0.00 90 1012.8
20201204212305 47 174 2.0 12.0 0.00 0.00 0.00 89 1012.8
20201204211759 47 180 4.0 12.0 0.00 0.00 0.00 89 1012.8
20201204211302 47 174 1.0 8.0 0.00 0.00 0.00 89 1013.0
20201204210455 47 169 2.0 8.0 0.00 0.00 0.00 87 1013.0
20201204210000 47 165 1.0 8.0 0.00 0.00 0.00 87 1013.0
20201204205456 47 0 0.0 8.0 0.00 0.00 0.00 88 1013.5
20201204204953 47 177 1.0 7.0 0.00 0.00 0.00 88 1013.5
20201204204302 46 0 0.0 7.0 0.00 0.00 0.00 88 1013.3
20201204203802 46 176 3.0 7.0 0.00 0.00 0.00 88 1013.3
20201204203301 47 175 1.0 7.0 0.00 0.00 0.00 87 1013.3
20201204202816 47 173 2.0 6.0 0.00 0.00 0.00 85 1013.6
20201204202300 47 0 0.0 8.0 0.00 0.00 0.00 83 1013.6
20201204201803 47 180 2.0 8.0 0.00 0.00 0.00 82 1013.6
20201204201132 47 0 0.0 7.0 0.00 0.00 0.00 82 1013.6
20201204200730 47 0 0.0 7.0 0.00 0.00 0.00 81 1013.6
20201204200119 48 0 0.0 7.0 0.00 0.00 0.00 81 1013.6
20201204195616 48 0 0.0 7.0 0.00 0.00 0.00 80 1014.1
20201204194645 48 0 0.0 7.0 0.00 0.00 0.00 79 1014.1
20201204194148 48 0 0.0 4.0 0.00 0.00 0.00 79 1014.2
20201204193647 48 0 0.0 0.0 0.00 0.00 0.00 78 1014.2
20201204193145 48 0 0.0 1.0 0.00 0.00 0.00 78 1014.2
20201204192646 48 0 0.0 6.0 0.00 0.00 0.00 78 1014.6
20201204192150 48 0 0.0 6.0 0.00 0.00 0.00 78 1014.6
20201204191646 48 0 0.0 5.0 0.00 0.00 0.00 76 1014.6
20201204191147 48 0 0.0 6.0 0.00 0.00 0.00 77 1014.7
20201204190646 48 182 1.0 6.0 0.00 0.00 0.00 77 1014.7
20201204190151 48 0 0.0 6.0 0.00 0.00 0.00 77 1014.7
20201204185647 48 0 0.0 6.0 0.00 0.00 0.00 77 1015.2
20201204185149 48 178 1.0 5.0 0.00 0.00 0.00 78 1015.2
20201204184259 48 196 2.0 8.0 0.00 0.00 0.00 78 1015.3
20201204183809 47 0 0.0 10.0 0.00 0.00 0.00 78 1015.3
20201204183308 47 187 4.0 10.0 0.00 0.00 0.00 78 1015.3
20201204182754 47 0 0.0 5.0 0.00 0.00 0.00 78 1015.7
20201204182155 47 0 0.0 7.0 0.00 0.00 0.00 77 1015.7
20201204181420 47 0 0.0 8.0 0.00 0.00 0.00 77 1015.7
20201204180920 47 0 0.0 8.0 0.00 0.00 0.00 77 1016.3
20201204180422 47 0 0.0 8.0 0.00 0.00 0.00 76 1016.3
20201204175920 47 0 0.0 9.0 0.00 0.00 0.00 77 1016.3
20201204175419 47 0 0.0 9.0 0.00 0.00 0.00 77 1016.3
20201204174921 47 0 0.0 7.0 0.00 0.00 0.00 77 1016.3
20201204174422 46 0 0.0 7.0 0.00 0.00 0.00 78 1016.3
20201204173919 46 189 2.0 8.0 0.00 0.00 0.00 77 1017.0
20201204173425 46 198 1.0 8.0 0.00 0.00 0.00 76 1017.0
20201204172919 46 189 2.0 7.0 0.00 0.00 0.00 76 1017.0
20201204172424 46 0 0.0 6.0 0.00 0.00 0.00 75 1017.3
20201204171923 47 0 0.0 6.0 0.00 0.00 0.00 74 1017.3
20201204171421 47 0 0.0 9.0 0.00 0.00 0.00 74 1017.3
20201204170921 47 0 0.0 10.0 0.00 0.00 0.00 73 1017.4
20201204170419 47 190 1.0 10.0 0.00 0.00 0.00 73 1017.4
20201204165920 47 0 0.0 7.0 0.00 0.00 0.00 73 1017.4
20201204165145 47 192 1.0 12.0 0.00 0.00 0.00 71 1017.8
20201204164655 47 0 0.0 11.0 0.00 0.00 0.00 71 1017.8
20201204164145 47 194 1.0 10.0 0.00 0.00 0.00 71 1018.0
20201204163451 46 193 3.0 12.0 0.00 0.00 0.00 70 1018.0
20201204162950 46 190 1.0 11.0 0.00 0.00 0.00 68 1018.0
20201204162451 45 194 2.0 11.0 0.00 0.00 0.00 68 1018.4
20201204162003 45 206 2.0 11.0 0.00 0.00 0.00 69 1018.4
20201204161450 45 195 1.0 9.0 0.00 0.00 0.00 69 1018.4
20201204160951 45 197 2.0 10.0 0.00 0.00 0.00 70 1018.5
20201204160450 45 191 1.0 11.0 0.00 0.00 0.00 70 1018.5
20201204155951 45 194 2.0 13.0 0.00 0.00 0.00 70 1018.5
20201204155455 45 202 3.0 14.0 0.00 0.00 0.00 69 1019.0
20201204154950 44 223 1.0 14.0 0.00 0.00 0.00 70 1019.0
20201204154452 44 209 3.0 10.0 0.00 0.00 0.00 69 1019.0
20201204153906 44 204 4.0 15.0 0.00 0.00 0.00 68 1019.0
20201204153410 45 201 3.0 16.0 0.00 0.00 0.00 67 1019.0
20201204152907 45 226 3.0 16.0 0.00 0.00 0.00 66 1019.0
20201204152412 44 222 1.0 13.0 0.00 0.00 0.00 68 1018.9
20201204151915 44 217 4.0 13.0 0.00 0.00 0.00 66 1018.9
20201204151407 44 217 2.0 9.0 0.00 0.00 0.00 68 1018.9
20201204150910 44 195 1.0 15.0 0.00 0.00 0.00 68 1018.9
20201204150408 44 198 1.0 15.0 0.00 0.00 0.00 67 1018.9
20201204145914 44 193 1.0 12.0 0.00 0.00 0.00 67 1018.9
20201204145407 44 193 2.0 9.0 0.00 0.00 0.00 70 1018.9
20201204144908 44 185 1.0 9.0 0.00 0.00 0.00 70 1018.9
20201204144409 43 200 1.0 13.0 0.00 0.00 0.00 70 1018.9
20201204143906 43 199 2.0 13.0 0.00 0.00 0.00 69 1018.6
20201204143407 43 201 3.0 11.0 0.00 0.00 0.00 68 1018.6
20201204142912 43 197 2.0 11.0 0.00 0.00 0.00 69 1018.6
20201204142414 43 198 1.0 13.0 0.00 0.00 0.00 70 1018.6
20201204141919 42 200 2.0 14.0 0.00 0.00 0.00 70 1018.6
20201204141408 42 199 4.0 14.0 0.00 0.00 0.00 71 1018.6
20201204140906 42 199 5.0 11.0 0.00 0.00 0.00 71 1018.6
20201204140409 42 197 2.0 14.0 0.00 0.00 0.00 72 1018.6
20201204135920 42 198 5.0 14.0 0.00 0.00 0.00 72 1018.6
20201204135410 41 198 2.0 17.0 0.00 0.00 0.00 72 1018.6
20201204134920 41 208 4.0 17.0 0.00 0.00 0.00 72 1018.6
20201204133814 41 213 5.0 14.0 0.00 0.00 0.00 73 1018.5
20201204133320 41 212 1.0 14.0 0.00 0.00 0.00 72 1018.5
20201204132814 41 234 4.0 14.0 0.00 0.00 0.00 73 1018.5
20201204132314 41 204 1.0 9.0 0.00 0.00 0.00 72 1018.4
20201204131655 41 201 1.0 11.0 0.00 0.00 0.00 73 1018.4
20201204130738 41 197 1.0 10.0 0.00 0.00 0.00 73 1018.5
20201204130242 41 195 3.0 10.0 0.00 0.00 0.00 74 1018.5
20201204125404 41 206 2.0 14.0 0.00 0.00 0.00 74 1018.5
20201204124903 41 201 4.0 14.0 0.00 0.00 0.00 74 1018.5
20201204124412 41 202 3.0 13.0 0.00 0.00 0.00 72 1018.5
20201204123904 41 204 2.0 20.0 0.00 0.00 0.00 72 1018.6
20201204123404 42 204 4.0 20.0 0.00 0.00 0.00 70 1018.6
20201204122859 43 213 4.0 15.0 0.00 0.00 0.00 68 1018.6
20201204122402 42 216 4.0 18.0 0.00 0.00 0.00 68 1018.4
20201204121858 42 235 4.0 18.0 0.00 0.00 0.00 68 1018.4
20201204121359 42 214 6.0 18.0 0.00 0.00 0.00 68 1018.4
20201204120908 42 223 3.0 18.0 0.00 0.00 0.00 69 1018.4
20201204120400 42 209 2.0 19.0 0.00 0.00 0.00 70 1018.4
20201204115913 42 222 6.0 19.0 0.00 0.00 0.00 70 1018.4
20201204115358 42 220 5.0 14.0 0.00 0.00 0.00 71 1018.4
20201204114859 42 217 3.0 14.0 0.00 0.00 0.00 73 1018.4
20201204114403 41 236 2.0 14.0 0.00 0.00 0.00 74 1018.4
20201204113859 41 220 5.0 14.0 0.00 0.00 0.00 74 1018.4
20201204113410 41 224 3.0 14.0 0.00 0.00 0.00 74 1018.4
20201204112907 41 218 3.0 14.0 0.00 0.00 0.00 74 1018.4
20201204112405 41 197 5.0 20.0 0.00 0.00 0.00 74 1018.4